CW6344 Weather Reports


time (UTC)temp
C
wind
direction
speed
KPH
gust
KPH
rain 1hr
cm
rain 24hr
cm
rain mn
cm
humidity
%
barometer
mb
20260507165455 14 287 0.0 0.0 0.00 0.13 0.13 58 1011.4
20260507164455 14 271 3.2 3.2 0.00 0.13 0.13 54 1011.2
20260507163455 14 328 0.0 0.0 0.00 0.13 0.13 58 1011.5
20260507162455 14 319 0.0 3.2 0.00 0.15 0.13 59 1011.6
20260507161455 14 289 0.0 0.0 0.00 0.15 0.13 59 1011.6
20260507160455 14 344 0.0 1.6 0.00 0.18 0.13 56 1011.9
20260507155455 14 192 0.0 1.6 0.00 0.23 0.13 62 1011.7
20260507154525 13 334 0.0 0.0 0.00 0.30 0.13 63 1011.7
20260507153455 13 319 0.0 0.0 0.00 0.30 0.13 60 1011.8
20260507152455 13 319 0.0 1.6 0.00 0.33 0.13 55 1012.0
20260507151455 14 282 0.0 1.6 0.00 0.33 0.13 58 1011.8
20260507150455 13 44 1.6 1.6 0.00 0.36 0.13 63 1011.9
20260507145455 13 360 0.0 1.6 0.00 0.36 0.13 55 1012.1
20260507144525 13 63 0.0 1.6 0.00 0.36 0.13 58 1012.0
20260507143455 14 311 3.2 4.8 0.00 0.36 0.13 58 1012.2
20260507142455 14 294 1.6 1.6 0.00 0.38 0.13 65 1012.2
20260507141455 14 51 0.0 1.6 0.00 0.38 0.13 65 1012.2
20260507140455 14 142 0.0 3.2 0.00 0.38 0.13 67 1012.0
20260507134455 14 342 0.0 1.6 0.00 0.38 0.13 74 1011.8
20260507133455 14 241 0.0 6.4 0.00 0.38 0.13 76 1012.0
20260507132455 14 295 0.0 0.0 0.00 0.38 0.13 79 1012.1
20260507131455 14 344 0.0 1.6 0.00 0.38 0.13 79 1012.0
20260507130455 14 9 1.6 1.6 0.00 0.38 0.13 80 1012.1
20260507125455 14 276 0.0 0.0 0.00 0.38 0.13 82 1012.0
20260507124625 13 164 0.0 0.0 0.00 0.38 0.13 83 1011.9
20260507123455 13 209 0.0 0.0 0.00 0.38 0.13 84 1011.6
20260507122455 13 57 0.0 0.0 0.00 0.38 0.13 84 1011.8
20260507121455 13 261 0.0 0.0 0.00 0.38 0.13 85 1011.8
20260507120525 13 328 0.0 0.0 0.00 0.38 0.13 85 1012.0
20260507115455 13 40 0.0 0.0 0.03 0.38 0.13 86 1011.8
20260507114455 13 40 0.0 0.0 0.03 0.38 0.13 87 1011.8
20260507113455 13 40 0.0 1.6 0.03 0.38 0.13 87 1012.0
20260507112455 13 19 0.0 0.0 0.03 0.38 0.13 88 1011.9
20260507111455 13 19 0.0 0.0 0.03 0.38 0.13 88 1011.6
20260507110455 12 119 0.0 1.6 0.03 0.38 0.13 87 1011.8
20260507105455 12 11 0.0 1.6 0.00 0.36 0.10 87 1011.6
20260507104525 12 29 0.0 0.0 0.00 0.36 0.10 87 1011.0
20260507103455 13 256 0.0 0.0 0.00 0.36 0.10 86 1011.0
20260507102455 13 38 0.0 0.0 0.00 0.36 0.10 85 1011.3
20260507101455 13 360 0.0 0.0 0.00 0.36 0.10 85 1011.1
20260507100455 13 264 3.2 3.2 0.00 0.36 0.10 85 1011.2
20260507095456 13 22 0.0 11.3 0.00 0.36 0.10 85 1010.5
20260507094526 13 325 0.0 9.7 0.00 0.36 0.10 86 1010.7
20260507092455 14 36 0.0 1.6 0.00 0.36 0.10 87 1010.7
20260507090455 14 43 0.0 3.2 0.00 0.36 0.10 88 1010.6
20260507084526 14 328 1.6 3.2 0.00 0.36 0.10 89 1010.5
20260507083456 14 331 1.6 3.2 0.00 0.36 0.10 89 1010.4
20260507082455 14 140 1.6 1.6 0.00 0.36 0.10 90 1010.0
20260507081456 15 297 0.0 0.0 0.00 0.36 0.10 90 1009.9
20260507080455 15 290 0.0 0.0 0.00 0.36 0.10 89 1010.3
20260507074456 15 360 0.0 0.0 0.00 0.36 0.10 90 1010.4
20260507073456 15 344 0.0 3.2 0.00 0.36 0.10 90 1010.3
20260507072456 15 350 1.6 3.2 0.00 0.36 0.10 90 1009.9
20260507071456 15 48 0.0 4.8 0.00 0.36 0.10 90 1009.6
20260507070526 16 42 0.0 1.6 0.00 0.36 0.10 91 1009.4
20260507065456 16 22 0.0 3.2 0.00 0.36 0.10 91 1009.0
20260507064525 17 128 0.0 0.0 0.00 0.36 0.10 91 1008.9
20260507063456 17 128 0.0 0.0 0.00 0.36 0.10 91 1008.5
20260507062456 17 127 0.0 0.0 0.08 0.36 0.10 91 1008.6
20260507060456 17 49 0.0 0.0 0.10 0.36 0.10 90 1009.1
20260507055456 17 41 0.0 0.0 0.10 0.36 0.10 90 1009.1
20260507054456 18 255 0.0 0.0 0.10 0.36 0.10 90 1009.2
20260507053456 18 73 1.6 3.2 0.10 0.36 0.10 89 1009.3
20260507052456 18 244 0.0 0.0 0.03 0.28 0.03 88 1009.4
20260507051456 18 244 0.0 0.0 0.00 0.25 0.00 87 1009.4
20260507050456 18 244 0.0 0.0 0.00 0.25 0.00 87 1009.3
20260507045456 18 244 0.0 0.0 0.00 0.25 0.00 87 1009.3
20260507044456 18 244 0.0 0.0 0.00 0.25 0.00 87 1009.3
20260507043456 18 244 0.0 0.0 0.00 0.25 0.00 86 1009.2
20260507042456 18 244 0.0 0.0 0.00 0.25 0.00 86 1009.2
20260507041456 18 244 0.0 0.0 0.00 0.25 0.00 85 1009.2
20260507040456 18 244 0.0 0.0 0.00 0.25 0.25 85 1009.2
20260507035456 18 244 0.0 0.0 0.00 0.25 0.25 85 1009.4
20260507034556 18 244 0.0 0.0 0.00 0.25 0.25 86 1009.5
20260507033456 18 244 0.0 0.0 0.00 0.25 0.25 86 1009.4
20260507032456 18 244 0.0 0.0 0.00 0.25 0.25 86 1009.0
20260507031456 18 244 0.0 0.0 0.00 0.25 0.25 85 1008.7
20260507030456 18 242 0.0 0.0 0.00 0.25 0.25 85 1008.6
20260507025456 18 242 0.0 0.0 0.00 0.25 0.25 84 1008.5
20260507024456 18 242 0.0 0.0 0.00 0.25 0.25 84 1008.6
20260507023456 18 242 0.0 1.6 0.00 0.25 0.25 84 1008.8
20260507022456 18 241 0.0 3.2 0.00 0.25 0.25 85 1009.1
20260507021456 18 232 0.0 1.6 0.00 0.25 0.25 85 1009.3
20260507020456 18 227 0.0 0.0 0.00 0.25 0.25 85 1009.3
20260507014526 18 227 0.0 0.0 0.00 0.25 0.25 84 1009.1
20260507012456 19 232 0.0 0.0 0.00 0.25 0.25 83 1009.0
20260507011456 19 277 3.2 3.2 0.00 0.25 0.25 83 1009.0
20260507010456 19 277 0.0 1.6 0.00 0.25 0.25 83 1009.2
20260507005456 19 220 0.0 3.2 0.00 0.25 0.25 82 1009.1
20260507004456 20 221 0.0 0.0 0.00 0.25 0.25 82 1008.9
20260507003456 20 213 3.2 3.2 0.00 0.25 0.25 82 1008.9
20260507002456 20 202 0.0 3.2 0.00 0.25 0.25 82 1009.1
20260507001456 20 9 0.0 1.6 0.00 0.25 0.25 81 1008.8
20260507000456 20 259 0.0 1.6 0.00 0.25 0.25 81 1008.6
20260506235456 20 215 0.0 1.6 0.00 0.25 0.25 80 1008.6
20260506234526 21 258 0.0 0.0 0.00 0.25 0.25 80 1008.5
20260506233456 21 222 0.0 1.6 0.00 0.25 0.25 79 1008.6
20260506232456 21 225 1.6 4.8 0.00 0.25 0.25 79 1008.5
20260506231456 21 244 0.0 4.8 0.00 0.25 0.25 79 1008.4
20260506230456 21 298 1.6 4.8 0.00 0.25 0.25 78 1008.4
20260506224456 21 189 1.6 4.8 0.00 0.25 0.25 78 1008.4
20260506223456 21 200 0.0 4.8 0.00 0.25 0.25 78 1008.4
20260506222456 21 261 0.0 4.8 0.00 0.25 0.25 78 1008.5
20260506221456 21 15 0.0 4.8 0.00 0.25 0.25 77 1008.5
20260506220526 21 232 1.6 4.8 0.00 0.25 0.25 77 1008.6
20260506215456 21 253 1.6 4.8 0.00 0.25 0.25 78 1008.6
20260506214456 21 155 3.2 4.8 0.00 0.25 0.25 78 1008.7
20260506213456 21 299 1.6 3.2 0.00 0.25 0.25 78 1008.7
20260506212456 21 205 3.2 6.4 0.00 0.25 0.25 77 1008.7
20260506211456 21 213 3.2 6.4 0.00 0.25 0.25 77 1008.8
20260506210456 21 271 3.2 4.8 0.00 0.25 0.25 78 1008.7
20260506205456 21 308 0.0 3.2 0.00 0.25 0.25 79 1008.6
20260506204456 20 198 1.6 4.8 0.00 0.25 0.25 79 1008.7
20260506203456 20 230 4.8 4.8 0.00 0.25 0.25 80 1008.6
20260506202456 20 235 1.6 4.8 0.00 0.25 0.25 80 1008.5
20260506201456 20 217 0.0 8.0 0.00 0.25 0.25 79 1008.7
20260506200456 20 238 1.6 4.8 0.00 0.25 0.25 80 1008.7
20260506195456 20 169 0.0 3.2 0.00 0.25 0.25 81 1008.7
20260506194456 20 219 4.8 4.8 0.00 0.25 0.25 81 1009.3
20260506193456 20 214 0.0 4.8 0.00 0.25 0.25 80 1009.3
20260506192526 20 265 4.8 11.3 0.00 0.25 0.25 80 1009.0
20260506191456 20 182 3.2 4.8 0.00 0.25 0.25 81 1009.1
20260506190456 20 186 1.6 4.8 0.00 0.25 0.25 80 1009.5
20260506184456 20 279 6.4 6.4 0.00 0.25 0.25 81 1009.6
20260506183456 20 217 0.0 8.0 0.00 0.25 0.25 80 1009.9
20260506182456 20 219 1.6 4.8 0.00 0.25 0.25 81 1009.7
20260506181456 20 5 1.6 4.8 0.00 0.25 0.25 82 1009.7
20260506180456 20 228 0.0 4.8 0.00 0.25 0.25 82 1010.0
20260506175456 19 293 1.6 3.2 0.00 0.25 0.25 83 1010.1
20260506174456 18 170 0.0 4.8 0.00 0.25 0.25 84 1010.2
20260506173456 18 288 3.2 4.8 0.00 0.25 0.25 85 1010.2
20260506172456 18 200 3.2 3.2 0.03 0.25 0.25 86 1010.2
20260506170456 18 13 1.6 3.2 0.05 0.25 0.25 87 1010.1